Hua-yang, China
Current Conditions -  °F | °C
As of 5:00 AM on Friday 28 Nov 2014 (Local Time) from ZUUU Reporting Station
Scattered Clouds Scattered Clouds  
Wind Chill: 55°   Ceiling: Unl
Heat Index: 55°   Visibility: 6mi
Dew Point: 43°   Wind: 4mph
Humidity: 63%   Direction: 40°NE
Pressure: 30"   Gusts: NA
Location:  30.5°N, 104.07°E
Report Text: ZUUU 272100Z 04002MPS 340V060 9999 SCT050 13/06 Q1016 NOSIG
Loading
Personal Weather Stations






























Interactive Weather Map New forecast layout! Learn more

10-Day Weather Forecast

Advertisements
Track Severe Weather on mobile